Time,TemperatureF,DewpointF,PressureIn,WindDirection,WindDirectionDegrees,WindSpeedMPH,WindSpeedGustMPH,Humidity,HourlyPrecipIn,Conditions,Clouds,dailyrainin,SoftwareType,DateUTC
2013-01-14 00:01:00,32.1,28.1,30.06,WNW,292,12.0,20.0,85,0.00,,,-99.99,WeatherLink 5.7,2013-01-14 05:01:00,
2013-01-14 00:11:00,32.0,28.0,30.07,WNW,292,11.0,18.0,85,0.00,,,-99.99,WeatherLink 5.7,2013-01-14 05:11:00,
2013-01-14 00:21:00,31.9,27.9,30.07,WNW,292,11.0,18.0,85,0.00,,,-99.99,WeatherLink 5.7,2013-01-14 05:21:00,
2013-01-14 00:31:00,31.5,26.9,30.07,WNW,292,13.0,23.0,83,0.00,,,-99.99,WeatherLink 5.7,2013-01-14 05:31:00,
2013-01-14 00:41:00,31.1,26.2,30.08,WNW,292,11.0,19.0,82,0.00,,,-99.99,WeatherLink 5.7,2013-01-14 05:41:00,
2013-01-14 00:51:00,31.0,25.9,30.08,WNW,292,11.0,20.0,81,0.00,,,-99.99,WeatherLink 5.7,2013-01-14 05:51:00,
2013-01-14 01:01:00,30.8,25.1,30.09,WNW,292,12.0,19.0,79,0.00,,,-99.99,WeatherLink 5.7,2013-01-14 06:01:00,
2013-01-14 01:11:00,30.6,24.6,30.10,WNW,292,13.0,21.0,78,0.00,,,-99.99,WeatherLink 5.7,2013-01-14 06:11:00,
2013-01-14 01:21:00,30.4,24.4,30.10,WNW,292,10.0,18.0,78,0.00,,,-99.99,WeatherLink 5.7,2013-01-14 06:21:00,
2013-01-14 01:31:00,30.2,24.2,30.11,WNW,292,12.0,19.0,78,0.00,,,-99.99,WeatherLink 5.7,2013-01-14 06:31:00,
2013-01-14 01:41:00,30.1,24.1,30.11,WNW,292,10.0,17.0,78,0.00,,,-99.99,WeatherLink 5.7,2013-01-14 06:41:00,
2013-01-14 01:51:00,29.9,23.3,30.12,WNW,292,13.0,21.0,76,0.00,,,-99.99,WeatherLink 5.7,2013-01-14 06:51:00,
2013-01-14 02:01:00,29.8,23.5,30.12,WNW,292,11.0,18.0,77,0.00,,,-99.99,WeatherLink 5.7,2013-01-14 07:01:00,
2013-01-14 02:11:00,29.7,23.1,30.13,WNW,292,10.0,20.0,76,0.00,,,-99.99,WeatherLink 5.7,2013-01-14 07:11:00,
2013-01-14 02:21:00,29.5,22.9,30.13,WNW,292,10.0,19.0,76,0.00,,,-99.99,WeatherLink 5.7,2013-01-14 07:21:00,
2013-01-14 02:31:00,29.4,22.5,30.14,WNW,292,12.0,19.0,75,0.00,,,-99.99,WeatherLink 5.7,2013-01-14 07:31:00,
2013-01-14 02:41:00,29.2,21.9,30.16,WNW,292,12.0,19.0,74,0.00,,,-99.99,WeatherLink 5.7,2013-01-14 07:41:00,
2013-01-14 02:51:00,29.0,22.1,30.16,WNW,292,11.0,17.0,75,0.00,,,-99.99,WeatherLink 5.7,2013-01-14 07:51:00,
2013-01-14 03:01:00,28.8,21.6,30.17,WNW,292,11.0,18.0,74,0.00,,,-99.99,WeatherLink 5.7,2013-01-14 08:01:00,
2013-01-14 03:11:00,28.8,21.6,30.18,WNW,292,11.0,20.0,74,0.00,,,-99.99,WeatherLink 5.7,2013-01-14 08:11:00,
2013-01-14 03:21:00,28.7,21.8,30.18,WNW,292,11.0,20.0,75,0.00,,,-99.99,WeatherLink 5.7,2013-01-14 08:21:00,
2013-01-14 03:31:00,28.6,21.7,30.18,WNW,292,11.0,20.0,75,0.00,,,-99.99,WeatherLink 5.7,2013-01-14 08:31:00,
2013-01-14 03:41:00,28.5,21.6,30.19,WNW,292,11.0,18.0,75,0.00,,,-99.99,WeatherLink 5.7,2013-01-14 08:41:00,
2013-01-14 03:51:00,28.1,21.2,30.20,West,270,11.0,18.0,75,0.00,,,-99.99,WeatherLink 5.7,2013-01-14 08:51:00,
2013-01-14 04:01:00,27.7,20.5,30.20,West,270,11.0,20.0,74,0.00,,,-99.99,WeatherLink 5.7,2013-01-14 09:01:00,
2013-01-14 04:11:00,27.3,20.1,30.20,West,270,10.0,18.0,74,0.00,,,-99.99,WeatherLink 5.7,2013-01-14 09:11:00,
2013-01-14 04:21:00,26.8,19.9,30.21,West,270,10.0,17.0,75,0.00,,,-99.99,WeatherLink 5.7,2013-01-14 09:21:00,
2013-01-14 04:31:00,26.5,19.3,30.22,WNW,292,13.0,22.0,74,0.00,,,-99.99,WeatherLink 5.7,2013-01-14 09:31:00,
2013-01-14 04:41:00,26.2,19.0,30.22,WNW,292,12.0,21.0,74,0.00,,,-99.99,WeatherLink 5.7,2013-01-14 09:41:00,
2013-01-14 04:51:00,26.0,18.8,30.22,NW,315,13.0,21.0,74,0.00,,,-99.99,WeatherLink 5.7,2013-01-14 09:51:00,
2013-01-14 05:01:00,25.9,18.7,30.22,WNW,292,14.0,22.0,74,0.00,,,-99.99,WeatherLink 5.7,2013-01-14 10:01:00,
2013-01-14 05:11:00,25.7,18.6,30.23,WNW,292,13.0,24.0,74,0.00,,,-99.99,WeatherLink 5.7,2013-01-14 10:11:00,
2013-01-14 05:21:00,25.6,18.5,30.24,NW,315,12.0,23.0,74,0.00,,,-99.99,WeatherLink 5.7,2013-01-14 10:21:00,
2013-01-14 05:31:00,25.4,18.3,30.24,WNW,292,11.0,19.0,74,0.00,,,-99.99,WeatherLink 5.7,2013-01-14 10:31:00,
2013-01-14 05:41:00,25.2,17.8,30.25,WNW,292,13.0,20.0,73,0.00,,,-99.99,WeatherLink 5.7,2013-01-14 10:41:00,
2013-01-14 05:51:00,24.8,17.4,30.26,WNW,292,11.0,20.0,73,0.00,,,-99.99,WeatherLink 5.7,2013-01-14 10:51:00,
2013-01-14 06:01:00,24.8,17.4,30.26,WNW,292,13.0,23.0,73,0.00,,,-99.99,WeatherLink 5.7,2013-01-14 11:01:00,
2013-01-14 06:11:00,24.8,17.4,30.27,WNW,292,12.0,18.0,73,0.00,,,-99.99,WeatherLink 5.7,2013-01-14 11:11:00,
2013-01-14 06:21:00,24.9,17.5,30.27,WNW,292,12.0,21.0,73,0.00,,,-99.99,WeatherLink 5.7,2013-01-14 11:21:00,
2013-01-14 06:31:00,25.0,17.6,30.27,WNW,292,12.0,18.0,73,0.00,,,-99.99,WeatherLink 5.7,2013-01-14 11:31:00,
2013-01-14 06:41:00,24.9,17.5,30.29,WNW,292,10.0,18.0,73,0.00,,,-99.99,WeatherLink 5.7,2013-01-14 11:41:00,
2013-01-14 06:51:00,24.8,17.1,30.29,WNW,292,11.0,19.0,72,0.00,,,-99.99,WeatherLink 5.7,2013-01-14 11:51:00,
2013-01-14 07:01:00,24.6,16.9,30.30,WNW,292,13.0,19.0,72,0.00,,,-99.99,WeatherLink 5.7,2013-01-14 12:01:00,
2013-01-14 07:11:00,24.6,16.9,30.30,WNW,292,12.0,21.0,72,0.00,,,-99.99,WeatherLink 5.7,2013-01-14 12:11:00,
2013-01-14 07:21:00,24.3,16.6,30.30,WNW,292,12.0,20.0,72,0.00,,,-99.99,WeatherLink 5.7,2013-01-14 12:21:00,
2013-01-14 07:31:00,24.2,16.5,30.30,WNW,292,11.0,19.0,72,0.00,,,-99.99,WeatherLink 5.7,2013-01-14 12:31:00,
2013-01-14 07:41:00,24.2,16.8,30.31,WNW,292,11.0,17.0,73,0.00,,,-99.99,WeatherLink 5.7,2013-01-14 12:41:00,
2013-01-14 07:51:00,24.3,16.9,30.32,WNW,292,9.0,17.0,73,0.00,,,-99.99,WeatherLink 5.7,2013-01-14 12:51:00,
2013-01-14 08:01:00,24.5,17.1,30.32,NW,315,9.0,16.0,73,0.00,,,-99.99,WeatherLink 5.7,2013-01-14 13:01:00,
2013-01-14 08:11:00,24.5,17.1,30.32,WNW,292,11.0,17.0,73,0.00,,,-99.99,WeatherLink 5.7,2013-01-14 13:11:00,
2013-01-14 08:21:00,24.5,16.8,30.34,WNW,292,10.0,17.0,72,0.00,,,-99.99,WeatherLink 5.7,2013-01-14 13:21:00,
2013-01-14 08:31:00,24.5,16.8,30.34,WNW,292,10.0,17.0,72,0.00,,,-99.99,WeatherLink 5.7,2013-01-14 13:31:00,
2013-01-14 08:41:00,24.5,16.8,30.35,WNW,292,9.0,14.0,72,0.00,,,-99.99,WeatherLink 5.7,2013-01-14 13:41:00,
2013-01-14 08:51:00,24.6,16.9,30.35,WNW,292,8.0,13.0,72,0.00,,,-99.99,WeatherLink 5.7,2013-01-14 13:51:00,
2013-01-14 09:01:00,24.7,17.0,30.36,WNW,292,6.0,12.0,72,0.00,,,-99.99,WeatherLink 5.7,2013-01-14 14:01:00,
2013-01-14 09:11:00,24.8,17.1,30.36,WNW,292,7.0,14.0,72,0.00,,,-99.99,WeatherLink 5.7,2013-01-14 14:11:00,
2013-01-14 09:21:00,24.8,16.7,30.36,WNW,292,6.0,12.0,71,0.00,,,-99.99,WeatherLink 5.7,2013-01-14 14:21:00,
2013-01-14 09:31:00,24.9,17.1,30.38,WNW,292,6.0,10.0,72,0.00,,,-99.99,WeatherLink 5.7,2013-01-14 14:31:00,
2013-01-14 09:41:00,25.0,17.2,30.38,WNW,292,7.0,12.0,72,0.00,,,-99.99,WeatherLink 5.7,2013-01-14 14:41:00,
2013-01-14 09:51:00,25.1,16.7,30.39,NW,315,7.0,13.0,70,0.00,,,-99.99,WeatherLink 5.7,2013-01-14 14:51:00,
2013-01-14 10:01:00,24.9,16.5,30.39,NNW,337,7.0,13.0,70,0.00,,,-99.99,WeatherLink 5.7,2013-01-14 15:01:00,
2013-01-14 10:11:00,24.8,15.7,30.39,NW,315,8.0,13.0,68,0.00,,,-99.99,WeatherLink 5.7,2013-01-14 15:11:00,
2013-01-14 10:21:00,24.7,15.3,30.39,NNW,337,8.0,13.0,67,0.00,,,-99.99,WeatherLink 5.7,2013-01-14 15:21:00,
2013-01-14 10:31:00,24.6,15.2,30.40,NNW,337,8.0,13.0,67,0.00,,,-99.99,WeatherLink 5.7,2013-01-14 15:31:00,
2013-01-14 10:41:00,24.6,14.9,30.40,NNW,337,7.0,11.0,66,0.00,,,-99.99,WeatherLink 5.7,2013-01-14 15:41:00,
2013-01-14 10:51:00,24.8,15.4,30.40,NW,315,7.0,13.0,67,0.00,,,-99.99,WeatherLink 5.7,2013-01-14 15:51:00,
2013-01-14 11:01:00,24.9,15.1,30.40,NW,315,7.0,14.0,66,0.00,,,-99.99,WeatherLink 5.7,2013-01-14 16:01:00,
2013-01-14 11:11:00,25.1,15.3,30.40,NW,315,7.0,12.0,66,0.00,,,-99.99,WeatherLink 5.7,2013-01-14 16:11:00,
2013-01-14 11:21:00,25.3,15.2,30.40,WNW,292,6.0,11.0,65,0.00,,,-99.99,WeatherLink 5.7,2013-01-14 16:21:00,
2013-01-14 11:31:00,25.5,15.4,30.39,WNW,292,5.0,9.0,65,0.00,,,-99.99,WeatherLink 5.7,2013-01-14 16:31:00,
2013-01-14 11:41:00,25.7,15.2,30.39,North,0,6.0,10.0,64,0.00,,,-99.99,WeatherLink 5.7,2013-01-14 16:41:00,
2013-01-14 11:51:00,25.7,14.8,30.38,NNW,337,4.0,8.0,63,0.00,,,-99.99,WeatherLink 5.7,2013-01-14 16:51:00,
2013-01-14 12:01:00,26.0,15.1,30.37,NNW,337,4.0,9.0,63,0.00,,,-99.99,WeatherLink 5.7,2013-01-14 17:01:00,
2013-01-14 12:11:00,26.0,15.1,30.37,NNW,337,4.0,7.0,63,0.00,,,-99.99,WeatherLink 5.7,2013-01-14 17:11:00,
2013-01-14 12:21:00,25.9,14.7,30.35,NNW,337,6.0,10.0,62,0.00,,,-99.99,WeatherLink 5.7,2013-01-14 17:21:00,
2013-01-14 12:31:00,25.7,14.5,30.36,North,0,5.0,8.0,62,0.00,,,-99.99,WeatherLink 5.7,2013-01-14 17:31:00,
2013-01-14 12:41:00,25.6,14.4,30.36,NW,315,4.0,8.0,62,0.00,,,-99.99,WeatherLink 5.7,2013-01-14 17:41:00,
2013-01-14 12:51:00,25.7,14.5,30.36,NNW,337,3.0,5.0,62,0.00,,,-99.99,WeatherLink 5.7,2013-01-14 17:51:00,
2013-01-14 13:01:00,26.0,14.8,30.36,NNW,337,4.0,9.0,62,0.00,,,-99.99,WeatherLink 5.7,2013-01-14 18:01:00,
2013-01-14 13:11:00,26.3,14.7,30.34,NNW,337,4.0,8.0,61,0.00,,,-99.99,WeatherLink 5.7,2013-01-14 18:11:00,
2013-01-14 13:21:00,27.2,15.1,30.34,NW,315,4.0,8.0,60,0.00,,,-99.99,WeatherLink 5.7,2013-01-14 18:21:00,
2013-01-14 13:31:00,27.6,15.9,30.36,WNW,292,5.0,9.0,61,0.00,,,-99.99,WeatherLink 5.7,2013-01-14 18:31:00,
2013-01-14 13:41:00,27.5,15.8,30.37,WNW,292,3.0,8.0,61,0.00,,,-99.99,WeatherLink 5.7,2013-01-14 18:41:00,
2013-01-14 13:51:00,27.2,15.1,30.36,West,270,3.0,8.0,60,0.00,,,-99.99,WeatherLink 5.7,2013-01-14 18:51:00,
2013-01-14 14:01:00,27.0,15.3,30.37,NNW,337,3.0,8.0,61,0.00,,,-99.99,WeatherLink 5.7,2013-01-14 19:01:00,
2013-01-14 14:11:00,27.0,14.9,30.38,West,270,3.0,8.0,60,0.00,,,-99.99,WeatherLink 5.7,2013-01-14 19:11:00,
2013-01-14 14:21:00,26.8,14.8,30.38,West,270,4.0,8.0,60,0.00,,,-99.99,WeatherLink 5.7,2013-01-14 19:21:00,
2013-01-14 14:31:00,26.7,15.0,30.38,NNW,337,3.0,8.0,61,0.00,,,-99.99,WeatherLink 5.7,2013-01-14 19:31:00,
2013-01-14 14:41:00,26.6,14.9,30.38,WSW,247,3.0,6.0,61,0.00,,,-99.99,WeatherLink 5.7,2013-01-14 19:41:00,
2013-01-14 14:51:00,26.6,14.9,30.39,West,270,5.0,10.0,61,0.00,,,-99.99,WeatherLink 5.7,2013-01-14 19:51:00,
2013-01-14 15:01:00,26.8,15.5,30.38,WNW,292,5.0,9.0,62,0.00,,,-99.99,WeatherLink 5.7,2013-01-14 20:01:00,
2013-01-14 15:11:00,26.9,15.6,30.39,WNW,292,5.0,10.0,62,0.00,,,-99.99,WeatherLink 5.7,2013-01-14 20:11:00,
2013-01-14 15:21:00,26.8,15.5,30.40,WNW,292,5.0,8.0,62,0.00,,,-99.99,WeatherLink 5.7,2013-01-14 20:21:00,
2013-01-14 15:31:00,26.9,15.2,30.39,WNW,292,5.0,10.0,61,0.00,,,-99.99,WeatherLink 5.7,2013-01-14 20:31:00,
2013-01-14 15:41:00,26.7,15.0,30.40,WNW,292,5.0,9.0,61,0.00,,,-99.99,WeatherLink 5.7,2013-01-14 20:41:00,
2013-01-14 15:51:00,26.4,15.1,30.40,WNW,292,7.0,11.0,62,0.00,,,-99.99,WeatherLink 5.7,2013-01-14 20:51:00,
2013-01-14 16:01:00,26.3,14.7,30.42,NNW,337,4.0,8.0,61,0.00,,,-99.99,WeatherLink 5.7,2013-01-14 21:01:00,
2013-01-14 16:11:00,26.1,14.8,30.43,WNW,292,4.0,9.0,62,0.00,,,-99.99,WeatherLink 5.7,2013-01-14 21:11:00,
2013-01-14 16:21:00,26.1,14.8,30.44,WNW,292,6.0,10.0,62,0.00,,,-99.99,WeatherLink 5.7,2013-01-14 21:21:00,
2013-01-14 16:31:00,26.0,14.8,30.43,WNW,292,5.0,9.0,62,0.00,,,-99.99,WeatherLink 5.7,2013-01-14 21:31:00,
2013-01-14 16:41:00,25.9,15.0,30.42,WNW,292,4.0,8.0,63,0.00,,,-99.99,WeatherLink 5.7,2013-01-14 21:41:00,
2013-01-14 16:51:00,25.8,14.9,30.44,WNW,292,4.0,7.0,63,0.00,,,-99.99,WeatherLink 5.7,2013-01-14 21:51:00,
2013-01-14 17:01:00,25.7,14.8,30.45,WNW,292,5.0,8.0,63,0.00,,,-99.99,WeatherLink 5.7,2013-01-14 22:01:00,
2013-01-14 17:11:00,25.6,15.1,30.45,WNW,292,4.0,7.0,64,0.00,,,-99.99,WeatherLink 5.7,2013-01-14 22:11:00,
2013-01-14 17:21:00,25.6,15.1,30.44,WNW,292,3.0,8.0,64,0.00,,,-99.99,WeatherLink 5.7,2013-01-14 22:21:00,
2013-01-14 17:31:00,25.6,15.1,30.43,West,270,4.0,7.0,64,0.00,,,-99.99,WeatherLink 5.7,2013-01-14 22:31:00,
2013-01-14 17:41:00,25.4,14.9,30.43,West,270,4.0,7.0,64,0.00,,,-99.99,WeatherLink 5.7,2013-01-14 22:41:00,
2013-01-14 17:51:00,25.3,14.8,30.44,West,270,3.0,7.0,64,0.00,,,-99.99,WeatherLink 5.7,2013-01-14 22:51:00,
2013-01-14 18:01:00,25.3,15.2,30.44,West,270,4.0,8.0,65,0.00,,,-99.99,WeatherLink 5.7,2013-01-14 23:01:00,
2013-01-14 18:11:00,25.4,15.3,30.43,West,270,3.0,6.0,65,0.00,,,-99.99,WeatherLink 5.7,2013-01-14 23:11:00,
2013-01-14 18:21:00,25.2,14.7,30.43,WSW,247,3.0,8.0,64,0.00,,,-99.99,WeatherLink 5.7,2013-01-14 23:21:00,
2013-01-14 18:31:00,25.1,15.0,30.42,West,270,3.0,7.0,65,0.00,,,-99.99,WeatherLink 5.7,2013-01-14 23:31:00,
2013-01-14 18:41:00,25.0,15.2,30.43,West,270,3.0,7.0,66,0.00,,,-99.99,WeatherLink 5.7,2013-01-14 23:41:00,
2013-01-14 18:51:00,25.0,15.2,30.43,WNW,292,4.0,7.0,66,0.00,,,-99.99,WeatherLink 5.7,2013-01-14 23:51:00,
2013-01-14 19:01:00,25.0,15.6,30.42,WNW,292,4.0,7.0,67,0.00,,,-99.99,WeatherLink 5.7,2013-01-15 00:01:00,
2013-01-14 19:11:00,25.1,15.3,30.42,WNW,292,3.0,7.0,66,0.00,,,-99.99,WeatherLink 5.7,2013-01-15 00:11:00,
2013-01-14 19:21:00,25.0,15.6,30.41,WNW,292,2.0,5.0,67,0.00,,,-99.99,WeatherLink 5.7,2013-01-15 00:21:00,
2013-01-14 19:31:00,24.9,15.5,30.41,WNW,292,3.0,7.0,67,0.00,,,-99.99,WeatherLink 5.7,2013-01-15 00:31:00,
2013-01-14 19:41:00,24.9,15.5,30.41,WNW,292,4.0,7.0,67,0.00,,,-99.99,WeatherLink 5.7,2013-01-15 00:41:00,
2013-01-14 19:51:00,24.9,15.8,30.41,WNW,292,3.0,7.0,68,0.00,,,-99.99,WeatherLink 5.7,2013-01-15 00:51:00,
2013-01-14 20:01:00,25.0,15.6,30.41,NW,315,4.0,8.0,67,0.00,,,-99.99,WeatherLink 5.7,2013-01-15 01:01:00,
2013-01-14 20:11:00,24.9,15.5,30.41,WNW,292,3.0,8.0,67,0.00,,,-99.99,WeatherLink 5.7,2013-01-15 01:11:00,
2013-01-14 20:21:00,24.8,15.7,30.41,NW,315,4.0,7.0,68,0.00,,,-99.99,WeatherLink 5.7,2013-01-15 01:21:00,
2013-01-14 20:31:00,24.8,15.7,30.40,NW,315,4.0,7.0,68,0.00,,,-99.99,WeatherLink 5.7,2013-01-15 01:31:00,
2013-01-14 20:41:00,24.7,15.6,30.40,WNW,292,3.0,6.0,68,0.00,,,-99.99,WeatherLink 5.7,2013-01-15 01:41:00,
2013-01-14 20:51:00,24.4,15.7,30.40,WNW,292,2.0,5.0,69,0.00,,,-99.99,WeatherLink 5.7,2013-01-15 01:51:00,
2013-01-14 21:01:00,24.1,15.4,30.40,WNW,292,2.0,5.0,69,0.00,,,-99.99,WeatherLink 5.7,2013-01-15 02:01:00,
2013-01-14 21:11:00,23.8,15.1,30.40,WNW,292,2.0,4.0,69,0.00,,,-99.99,WeatherLink 5.7,2013-01-15 02:11:00,
2013-01-14 21:21:00,23.4,14.7,30.40,WNW,292,1.0,3.0,69,0.00,,,-99.99,WeatherLink 5.7,2013-01-15 02:21:00,
2013-01-14 21:31:00,23.1,14.4,30.40,WNW,292,1.0,3.0,69,0.00,,,-99.99,WeatherLink 5.7,2013-01-15 02:31:00,
2013-01-14 21:41:00,22.7,14.4,30.40,WNW,292,1.0,3.0,70,0.00,,,-99.99,WeatherLink 5.7,2013-01-15 02:41:00,
2013-01-14 21:51:00,22.3,14.3,30.40,WNW,292,0.0,2.0,71,0.00,,,-99.99,WeatherLink 5.7,2013-01-15 02:51:00,
2013-01-14 22:01:00,21.9,13.9,30.40,WNW,292,1.0,3.0,71,0.00,,,-99.99,WeatherLink 5.7,2013-01-15 03:01:00,
2013-01-14 22:11:00,21.5,13.9,30.39,WNW,292,0.0,2.0,72,0.00,,,-99.99,WeatherLink 5.7,2013-01-15 03:11:00,
2013-01-14 22:21:00,21.2,13.6,30.39,WNW,292,0.0,1.0,72,0.00,,,-99.99,WeatherLink 5.7,2013-01-15 03:21:00,
2013-01-14 22:31:00,20.8,13.5,30.38,North,-999,0.0,0.0,73,0.00,,,-99.99,WeatherLink 5.7,2013-01-15 03:31:00,
2013-01-14 22:41:00,20.4,13.1,30.39,North,-999,0.0,0.0,73,0.00,,,-99.99,WeatherLink 5.7,2013-01-15 03:41:00,
2013-01-14 22:51:00,20.0,13.0,30.39,North,-999,0.0,0.0,74,0.00,,,-99.99,WeatherLink 5.7,2013-01-15 03:51:00,
2013-01-14 23:01:00,19.7,12.8,30.39,WNW,292,0.0,1.0,74,0.00,,,-99.99,WeatherLink 5.7,2013-01-15 04:01:00,
2013-01-14 23:11:00,19.3,12.7,30.39,WNW,292,0.0,1.0,75,0.00,,,-99.99,WeatherLink 5.7,2013-01-15 04:11:00,
2013-01-14 23:21:00,18.9,12.3,30.39,North,-999,0.0,0.0,75,0.00,,,-99.99,WeatherLink 5.7,2013-01-15 04:21:00,
2013-01-14 23:31:00,18.7,12.4,30.39,WNW,292,0.0,1.0,76,0.00,,,-99.99,WeatherLink 5.7,2013-01-15 04:31:00,
2013-01-14 23:41:00,18.6,12.6,30.40,WNW,292,0.0,2.0,77,0.00,,,-99.99,WeatherLink 5.7,2013-01-15 04:41:00,
2013-01-14 23:51:00,18.5,12.5,30.40,WNW,292,0.0,1.0,77,0.00,,,-99.99,WeatherLink 5.7,2013-01-15 04:51:00,